Weather History for CYVQ - January, 2013

Change the Weather History Date:

Wednesday, January 16, 2013

  Actual Average Record
Temperature  
Mean Temperature -10 °F -  
Max Temperature -7 °F -8 °F 21 °F (2009)
Min Temperature -14 °F -24 °F -36 °F (1998)
Degree Days  
Heating Degree Days 76    
Moisture  
Dew Point -17 °F    
Average Humidity 72    
Maximum Humidity 77    
Minimum Humidity 59    
Precipitation  
Precipitation 0.01 in 0.02 in - ()
Sea Level Pressure  
Sea Level Pressure 30.28 in    
Wind  
Wind Speed 4 mph ()    
Max Wind Speed 9 mph    
Max Gust Speed -    
Visibility 14.9 miles    
Events Snow    
Averages and records for this station are not official NWS values.
T = Trace of Precipitation, MM = Missing Value Source: Averaged Metar Reports

Daily Weather History Graph

Daily Weather History Graph

Search for Another Location

Airport or City:

Trip Planner

Search our weather history database for the weather conditions in past years. The results will help you decide how hot, cold, wet, or windy it might be!

Date:

Astronomy

Jan. 16, 2013 Rise Set
Actual Time 11:05 AM MST 4:09 PM MST
Civil Twilight 9:52 AM MST 5:22 PM MST
Nautical Twilight 8:45 AM MST 6:29 PM MST
Astronomical Twilight 7:45 AM MST 7:29 PM MST
Moon 11:03 AM MST (1/16) No Moon Set
Length of Visible Light 7h 29m
Length of Day
5h 04m
Waxing Crescent, 29% of the Moon is Illuminated
Jan 16
Waxing Crescent
Jan 18
First Quarter
Jan 26
Full
Feb 3
Last Quarter
Feb 10
New

Hourly Weather History & Observations

Time (MST) Temp. Windchill Dew Point Humidity Pressure Visibility Wind Dir Wind Speed Gust Speed Precip Events Conditions
12:00 AM -9.4 °F -22.7 °F -14.8 °F 77% 30.24 in 20.0 mi SE 5.8 mph - N/A Snow Light Snow
1:00 AM -7.6 °F -22.1 °F -14.8 °F 71% 30.24 in 15.0 mi ESE 6.9 mph - N/A Snow Light Snow
2:00 AM -7.6 °F -18.8 °F -14.8 °F 71% 30.25 in 15.0 mi East 4.6 mph - N/A Snow Light Snow
2:52 AM -9.4 °F -20.9 °F -16.6 °F 71% 30.26 in 20.0 mi East 4.6 mph - N/A   Ice Crystals
3:00 AM -9.4 °F - -16.6 °F 71% 30.27 in 20.0 mi East 2.3 mph - N/A   Ice Crystals
4:00 AM -9.4 °F -22.7 °F -16.6 °F 71% 30.27 in 20.0 mi ESE 5.8 mph - N/A   Ice Crystals
5:00 AM -10 °F - -16 °F 63% 30.27 in 19 mi East 3.5 mph - - Snow Snow
5:00 AM -9.4 °F -18.6 °F -16.6 °F 71% 30.27 in 20.0 mi East 3.5 mph - N/A   Ice Crystals
6:00 AM -13.0 °F -22.7 °F -20.2 °F 70% 30.28 in 20.0 mi NE 3.5 mph - N/A   Ice Crystals
7:00 AM -13.0 °F -25.1 °F -18.4 °F 77% 30.28 in 20.0 mi East 4.6 mph - N/A   Ice Crystals
7:31 AM -13.0 °F -22.7 °F -18.4 °F 77% 30.29 in 15.0 mi East 3.5 mph - N/A Snow Light Snow
8:00 AM -13.0 °F - -18.4 °F 77% 30.29 in 10.0 mi Calm Calm - N/A Snow Light Snow
9:00 AM -11.2 °F -20.6 °F -18.4 °F 70% 30.30 in 15.0 mi ENE 3.5 mph - N/A   Ice Crystals
10:00 AM -13.0 °F -22.7 °F -18.4 °F 77% 30.31 in 20.0 mi ENE 3.5 mph - N/A   Ice Crystals
10:38 AM -11.2 °F -23.0 °F -18.4 °F 70% 30.31 in 15.0 mi East 4.6 mph - N/A Snow Light Snow
11:00 AM -13 °F - -19 °F 59% 30.31 in 5 mi East 4.6 mph - - Snow Light Snow
11:00 AM -13.0 °F -25.1 °F -20.2 °F 70% 30.31 in 5.0 mi East 4.6 mph - N/A Snow Light Snow
12:00 PM -11.2 °F -23.0 °F -18.4 °F 70% 30.31 in 10.0 mi ESE 4.6 mph - N/A Snow Light Snow
1:00 PM -11.2 °F - -18.4 °F 70% 30.32 in 20.0 mi Calm Calm - N/A Snow Light Snow
2:00 PM -13.0 °F -22.7 °F -18.4 °F 77% 30.32 in 20.0 mi ESE 3.5 mph - N/A Snow Light Snow
3:00 PM -11.2 °F -20.6 °F -16.6 °F 77% 30.32 in 20.0 mi ENE 3.5 mph - N/A Snow Light Snow
4:00 PM -11.2 °F - -16.6 °F 77% 30.32 in 10.0 mi SE 2.3 mph - N/A Snow Light Snow Showers
5:00 PM -11 °F - -17 °F 63% 30.32 in 10 mi ESE 3.5 mph - - Snow Light Snow Showers
5:00 PM -11.2 °F - -16.6 °F 77% 30.32 in 10.0 mi East 2.3 mph - N/A Snow Light Snow Showers
6:00 PM -9.4 °F -20.9 °F -16.6 °F 71% 30.30 in 10.0 mi SE 4.6 mph - N/A Snow Light Snow Showers
7:00 PM -9.4 °F -22.7 °F -14.8 °F 77% 30.27 in 10.0 mi East 5.8 mph - N/A Snow Light Snow Showers
8:00 PM -9.4 °F -24.3 °F -14.8 °F 77% 30.26 in 10.0 mi ESE 6.9 mph - N/A Snow Light Snow Showers
9:00 PM -9.4 °F -26.8 °F -14.8 °F 77% 30.26 in 10.0 mi ESE 9.2 mph - N/A Snow Light Snow Showers
10:00 PM -9.4 °F -24.3 °F -16.6 °F 71% 30.23 in 10.0 mi ESE 6.9 mph - N/A Snow Light Snow Showers
10:29 PM -9.4 °F -26.8 °F -16.6 °F 71% 30.23 in 15.0 mi ESE 9.2 mph - N/A Snow Light Snow
11:00 PM -12 °F - -18 °F 63% 30.22 in 19 mi ESE 5.8 mph - - Snow Light Snow
11:00 PM -11.2 °F -23.0 °F -18.4 °F 70% 30.22 in 20.0 mi East 4.6 mph - N/A Snow Light Snow